Weather in Kamen

Germany     51°35′36″N   7°39′13″E
temp.,
°C
wind,
m/s
gust,
m/s
humid.,
%
clouds,
%
prec.,
mm/h
press.,
hPa
HPBL,
m
26 january, tue
tue2601:00+2wsw61296100 0.9 1009830
04:00+3wsw81587100 0.4 10091154
07:00+2w61393100 1.9 1011810
10:00+2wnw4993100 0.5 1014589
13:00+2nw4786100 0.6 1016708
16:00+3w258193 0.0 1017244
19:00+2wsw388893 0.2 1018412
22:00+1sw4109098 0.0 1018451
27 january, wed
wed2701:00+1sw4117899 0.0 1017486
04:00+1ssw41173100 0.0 1014674
07:00+1ssw51288100 0.4 1012560
10:00+2sw61293100 0.7 1010544
13:00+3wsw61291100 1.1 1010526
16:00+4wsw51294100 0.4 1009607
19:00+5w51295100 0.7 1011669
22:00+4w41089100 0.4 1012478
28 january, thu
thu2801:00+3nw379399 0.5 1014453
04:00+1wsw119557 0.0 101431
07:00+1sse129279 0.0 101333
10:00+2sse2485100 0.0 1010205
13:00+3ese3694100 1.8 1006292
16:00+3e3596100 2.8 1002188
19:00+3ne1297100 4.9 100362
22:00+2sse019893 0.2 100333
29 january, fri
fri2901:00+4sse119897 0.5 100324
04:00+5wsw1499100 2.7 1001173
07:00+7sw41294100 6.3 999540
10:00+8w71489100 0.3 999947
13:00+7wsw81581100 0.3 9991206
16:00+7w81684100 0.4 10011127
19:00+7w81582100 0.5 10031144
22:00+7w61185100 0.3 1004905
30 january, sat
sat3001:00+6wsw5118097 0.5 1004691
04:00+6wsw4985100 0.2 1003443
07:00+5sw3895100 0.4 1003317
10:00+5wsw2494100 0.3 1003313
13:00+6wnw2388100 0.3 1003342
16:00+5nne2388100 0.1 1004289
19:00+2ne359297 0.1 1006245
22:00+1ne229494 0.0 1008115